When you browse on this site, cookies collect data to enhance your experience and personalize the content and advertising you see.
Visit our Privacy Policy to learn more. By continuing to use the site, you agree to this use of cookies and data.
  • In Latvia
  • List of Countries
  • For 7 days
  • Water Temperature
  • Weather Map
  • Weather Widgets
  • user-avatar
    Login

    Hourly Weather Gagarino

    Today, 14 December, Saturday

    Time Temperature Precipitation Wind Pressure Humidity
    00:00 -4°C° 0 mm 5 mps 746 mmHg 83%
    01:00 -4°C° 0 mm 5 mps 746 mmHg 83%
    02:00 -4°C° 0 mm 5 mps 746 mmHg 84%
    03:00 -4°C° 0 mm 5 mps 746 mmHg 84%
    04:00 -4°C° 0 mm 5 mps 746 mmHg 83%
    05:00 -4°C° 0 mm 5 mps 745 mmHg 83%
    06:00 -4°C° 0 mm 5 mps 745 mmHg 82%
    07:00 -4°C° 0 mm 5 mps 745 mmHg 81%
    08:00 -4°C° 0 mm 5 mps 745 mmHg 80%
    09:00 -4°C° 0 mm 5 mps 745 mmHg 79%
    10:00 -4°C° 0 mm 5 mps 745 mmHg 77%
    11:00 -4°C° 0 mm 5 mps 745 mmHg 76%
    12:00 -4°C° 0 mm 5 mps 745 mmHg 74%
    13:00 -4°C° 0 mm 5 mps 745 mmHg 75%
    14:00 -4°C° 0 mm 5 mps 745 mmHg 76%
    15:00 -4°C° 0 mm 5 mps 745 mmHg 77%
    16:00 -4°C° 0 mm 5 mps 745 mmHg 80%
    17:00 -4°C° 0 mm 5 mps 745 mmHg 83%
    18:00 -5°C° 0 mm 6 mps 745 mmHg 85%
    19:00 -4°C° 0 mm 6 mps 744 mmHg 86%
    20:00 -4°C° 0 mm 6 mps 744 mmHg 86%
    21:00 -4°C° 0 mm 6 mps 744 mmHg 87%
    22:00 -4°C° 0.2 mm 6 mps 744 mmHg 89%
    23:00 -3°C° 0.2 mm 6 mps 744 mmHg 92%

    Tomorrow, 15 December, Sunday

    Time Temperature Precipitation Wind Pressure Humidity
    00:00 -2°C° 0.2 mm 5 mps 744 mmHg 94%
    01:00 -3°C° 0.1 mm 6 mps 744 mmHg 94%
    02:00 -2°C° 0.1 mm 6 mps 744 mmHg 95%
    03:00 -2°C° 0.1 mm 6 mps 744 mmHg 95%
    04:00 -2°C° 0.2 mm 6 mps 743 mmHg 95%
    05:00 -2°C° 0.2 mm 6 mps 743 mmHg 95%
    06:00 -2°C° 0.2 mm 6 mps 743 mmHg 96%
    07:00 -2°C° 0.3 mm 6 mps 743 mmHg 96%
    08:00 -2°C° 0.3 mm 6 mps 743 mmHg 96%
    09:00 -2°C° 0.3 mm 6 mps 743 mmHg 95%
    10:00 -1°C° 0 mm 6 mps 743 mmHg 95%
    11:00 -1°C° 0 mm 6 mps 742 mmHg 95%
    12:00 -1°C° 0 mm 6 mps 742 mmHg 95%
    13:00 -1°C° 0 mm 6 mps 742 mmHg 95%
    14:00 -1°C° 0 mm 6 mps 742 mmHg 95%
    15:00 -1°C° 0 mm 6 mps 742 mmHg 95%
    16:00 -1°C° 0.1 mm 6 mps 741 mmHg 95%
    17:00 -1°C° 0.1 mm 6 mps 741 mmHg 95%
    18:00 -1°C° 0.1 mm 6 mps 741 mmHg 95%
    19:00 -1°C° 0.8 mm 6 mps 742 mmHg 96%
    20:00 +1°C° 0.8 mm 5 mps 742 mmHg 96%
    21:00 +1°C° 0.8 mm 5 mps 742 mmHg 96%
    22:00 0°C° 0.1 mm 4 mps 742 mmHg 96%
    23:00 0°C° 0.1 mm 4 mps 743 mmHg 95%

    Day after tomorrow, 16 December, Monday

    Time Temperature Precipitation Wind Pressure Humidity
    00:00 0°C° 0.1 mm 3 mps 743 mmHg 95%
    01:00 0°C° 0 mm 3 mps 743 mmHg 94%
    02:00 -1°C° 0 mm 3 mps 744 mmHg 94%
    03:00 -1°C° 0 mm 3 mps 744 mmHg 93%
    04:00 -2°C° 0 mm 4 mps 744 mmHg 92%
    05:00 -1°C° 0 mm 4 mps 744 mmHg 91%
    06:00 -1°C° 0 mm 5 mps 744 mmHg 90%
    07:00 -1°C° 0 mm 5 mps 744 mmHg 88%
    08:00 -1°C° 0 mm 6 mps 744 mmHg 86%
    09:00 -1°C° 0 mm 7 mps 743 mmHg 83%
    10:00 -1°C° 0 mm 7 mps 744 mmHg 84%
    11:00 0°C° 0 mm 7 mps 744 mmHg 85%
    12:00 0°C° 0 mm 7 mps 744 mmHg 86%
    13:00 +1°C° 0 mm 6 mps 745 mmHg 86%
    14:00 +1°C° 0 mm 6 mps 745 mmHg 86%
    15:00 -1°C° 0 mm 6 mps 745 mmHg 86%
    16:00 -1°C° 0 mm 6 mps 745 mmHg 86%
    17:00 -1°C° 0 mm 6 mps 745 mmHg 85%
    18:00 -2°C° 0 mm 6 mps 746 mmHg 85%
    19:00 -2°C° 0 mm 6 mps 746 mmHg 85%
    20:00 -2°C° 0 mm 6 mps 746 mmHg 85%
    21:00 -3°C° 0 mm 6 mps 746 mmHg 85%
    22:00 -2°C° 0 mm 5 mps 747 mmHg 85%
    23:00 -2°C° 0 mm 5 mps 747 mmHg 85%

    17 December, Tuesday

    Time Temperature Precipitation Wind Pressure Humidity
    00:00 -2°C° 0 mm 5 mps 747 mmHg 85%
    01:00 -2°C° 0 mm 5 mps 747 mmHg 86%
    02:00 -2°C° 0 mm 5 mps 747 mmHg 87%
    03:00 -2°C° 0 mm 5 mps 747 mmHg 87%
    04:00 -3°C° 0 mm 4 mps 748 mmHg 88%
    05:00 -3°C° 0 mm 4 mps 748 mmHg 88%
    06:00 -2°C° 0 mm 3 mps 748 mmHg 89%
    07:00 -2°C° 0 mm 3 mps 748 mmHg 89%
    08:00 -2°C° 0 mm 3 mps 748 mmHg 89%
    09:00 -1°C° 0 mm 3 mps 749 mmHg 88%
    10:00 -1°C° 0 mm 2 mps 749 mmHg 85%
    11:00 +1°C° 0 mm 2 mps 749 mmHg 82%
    12:00 +2°C° 0 mm 2 mps 749 mmHg 78%
    13:00 +1°C° 0 mm 3 mps 748 mmHg 80%
    14:00 +1°C° 0 mm 3 mps 748 mmHg 81%
    15:00 +1°C° 0 mm 3 mps 747 mmHg 82%
    16:00 +1°C° 0 mm 3 mps 747 mmHg 84%
    17:00 0°C° 0 mm 4 mps 747 mmHg 87%
    18:00 -1°C° 0 mm 4 mps 747 mmHg 89%
    19:00 -1°C° 0 mm 4 mps 747 mmHg 90%
    20:00 -1°C° 0 mm 4 mps 746 mmHg 91%
    21:00 -1°C° 0 mm 5 mps 746 mmHg 92%
    22:00 -1°C° 0 mm 5 mps 746 mmHg 93%
    23:00 -1°C° 0 mm 5 mps 746 mmHg 94%

    18 December, Wednesday

    Time Temperature Precipitation Wind Pressure Humidity
    00:00 -1°C° 0 mm 5 mps 746 mmHg 96%
    01:00 -1°C° 0 mm 5 mps 746 mmHg 96%
    02:00 -1°C° 0 mm 5 mps 746 mmHg 96%
    03:00 -1°C° 0 mm 5 mps 746 mmHg 96%
    04:00 -1°C° 0 mm 4 mps 746 mmHg 96%
    05:00 -1°C° 0 mm 4 mps 746 mmHg 96%
    06:00 -1°C° 0 mm 4 mps 746 mmHg 95%
    07:00 0°C° 0 mm 3 mps 746 mmHg 95%
    08:00 -1°C° 0 mm 3 mps 746 mmHg 95%
    09:00 -1°C° 0 mm 3 mps 746 mmHg 94%
    10:00 0°C° 0 mm 3 mps 746 mmHg 92%
    11:00 +1°C° 0 mm 3 mps 746 mmHg 89%
    12:00 +1°C° 0 mm 4 mps 746 mmHg 87%
    13:00 +1°C° 0 mm 4 mps 745 mmHg 88%
    14:00 +1°C° 0 mm 4 mps 745 mmHg 90%
    15:00 0°C° 0 mm 4 mps 744 mmHg 91%
    16:00 0°C° 0 mm 4 mps 744 mmHg 93%
    17:00 0°C° 0 mm 4 mps 744 mmHg 94%
    18:00 -1°C° 0 mm 4 mps 744 mmHg 96%
    19:00 0°C° 0 mm 4 mps 744 mmHg 97%
    20:00 0°C° 0 mm 4 mps 744 mmHg 97%
    21:00 0°C° 0 mm 4 mps 743 mmHg 97%
    22:00 0°C° 0 mm 4 mps 743 mmHg 97%
    23:00 0°C° 0 mm 4 mps 743 mmHg 97%

    19 December, Thursday

    Time Temperature Precipitation Wind Pressure Humidity
    00:00 0°C° 0 mm 4 mps 743 mmHg 97%
    01:00 0°C° 0 mm 4 mps 743 mmHg 96%
    02:00 0°C° 0 mm 4 mps 742 mmHg 96%
    03:00 0°C° 0 mm 4 mps 742 mmHg 96%
    04:00 0°C° 0 mm 4 mps 742 mmHg 95%
    05:00 0°C° 0 mm 4 mps 741 mmHg 95%
    06:00 -1°C° 0 mm 4 mps 741 mmHg 95%
    07:00 -1°C° 0 mm 4 mps 741 mmHg 95%
    08:00 0°C° 0 mm 4 mps 741 mmHg 95%
    09:00 0°C° 0 mm 4 mps 741 mmHg 95%
    10:00 0°C° 0 mm 4 mps 741 mmHg 95%
    11:00 0°C° 0 mm 4 mps 741 mmHg 96%
    12:00 +1°C° 0 mm 3 mps 741 mmHg 96%
    13:00 +1°C° 0 mm 3 mps 740 mmHg 96%
    14:00 +1°C° 0 mm 3 mps 740 mmHg 96%
    15:00 +1°C° 0 mm 3 mps 740 mmHg 96%
    16:00 +1°C° 0 mm 4 mps 739 mmHg 96%
    17:00 +1°C° 0 mm 4 mps 739 mmHg 95%
    18:00 +1°C° 0 mm 5 mps 739 mmHg 95%
    19:00 +1°C° 0.1 mm 5 mps 739 mmHg 95%
    20:00 +1°C° 0.1 mm 5 mps 739 mmHg 95%
    21:00 +1°C° 0.1 mm 5 mps 738 mmHg 94%
    22:00 +1°C° 0 mm 5 mps 738 mmHg 93%
    23:00 +1°C° 0 mm 5 mps 738 mmHg 92%
    Show more